[[{"header":{"parameterUnit":"m.s-1","parameterCategory":1,"la1":30.2991,"la2":30.254,"lo1":-89.0895,"lo2":-89.0444,"dy":0.0017,"dx":0.0017,"nx":28,"ny":28,"refTime":"2024-07-21T21:00:00:Z","depth":0,"parameterNumber":2,"parameterNumberName":"U-component_of_WINDS"},"data":[0,0,0,0,0,0,0,0,0,0,0,0,0,0,0,0,0,0,0,0,0,0,0,0,0,0,0,0,0,0,0,0,0,0,0,0,0,0,0,0,0,0,0,0,0,0,0,0,0,0,0,0,0,0,0,0,0,0,1.7032,1.7032,0,1.7037,1.7037,1.7037,1.6987,1.6986,1.6984,1.6983,1.6987,1.6988,1.699,0,0,0,0,0,0,0,0,0,0,0,0,0,1.6979,1.698,1.7032,1.7032,1.7032,1.7037,1.7037,1.7037,1.6987,1.6986,1.6984,1.6982,1.6987,1.6988,1.699,0,0,0,0,0,0,0,0,0,0,0,0,0,1.6995,1.6981,1.7032,1.7008,1.7006,1.7037,1.7037,1.7037,1.6988,1.6986,1.6984,1.6982,1.6986,1.6988,1.699,1.7044,0,0,1.6997,1.6997,0,0,0,0,0,0,0,0,1.6994,1.6997,1.7012,1.701,1.7008,1.7009,1.7019,1.7039,1.6988,1.6995,1.6983,1.6981,1.6996,1.6997,1.7003,1.7044,1.7044,1.6997,1.6998,1.6999,1.6999,0,0,0,0,0,0,0,1.6993,1.6996,1.7034,1.7012,1.701,1.6996,1.6996,1.7023,1.7007,1.6994,1.699,1.6992,1.6995,1.7001,1.7002,1.7044,1.6997,1.6998,1.7,1.7001,1.7126,1.7128,0,0,0,0,0,0,1.6995,1.6996,1.7034,1.7034,1.6996,1.6999,1.6999,1.7011,1.7006,1.7004,1.6993,1.6989,1.6998,1.7,1.7002,1.7062,1.6999,1.7001,1.7002,1.7124,1.7126,1.7128,0,0,0,0,0,0,1.6994,1.6999,1.7034,1.7014,1.7017,1.7002,1.7016,1.7012,1.7018,1.7006,1.7003,1.7003,1.6997,1.6999,1.7033,1.7061,1.7002,1.7004,1.7121,1.7124,1.7127,1.7183,0,0,0,0,0,0,1.6993,1.6999,1.702,1.7015,1.7019,1.7065,1.7018,1.7014,1.7022,1.7016,1.7014,1.7011,1.6995,1.703,1.7035,1.7063,1.7005,1.7119,1.7123,1.7126,1.7179,1.7188,1.7196,0,0,0,0,0,1.6991,1.7036,1.7021,1.7026,1.7044,1.7067,1.7069,1.705,1.7024,1.7044,1.7036,1.7011,1.7058,1.7034,1.7039,1.7068,1.7117,1.7122,1.7126,1.7175,1.7186,1.7195,0,0,0,0,0,0,1.7046,1.7035,1.7018,1.7063,1.7066,1.7059,1.7084,1.7063,1.7073,1.7068,1.7043,1.7043,1.708,1.7078,1.7051,1.7118,1.7083,1.7088,1.7118,1.7128,1.7137,1.7135,1.7007,0,0,0,0,0,1.7063,1.7083,1.7072,1.7113,1.7115,1.7099,1.7109,1.7093,1.7095,1.7096,1.7091,1.7093,1.7108,1.7118,1.7132,1.7178,1.7175,1.7201,1.7209,1.7216,1.7221,1.7242,1.7252,1.7144,1.7144,1.7144,0,0,1.7099,1.7096,1.711,1.7124,1.7124,1.7144,1.7101,1.7124,1.7138,1.71,1.713,1.7126,1.7127,1.7167,1.7184,1.7166,1.725,1.7222,1.7228,1.7229,1.7248,1.7258,1.7267,1.7147,1.7147,1.7146,0,0,1.7174,1.7175,1.7207,1.7208,1.7208,1.7197,1.7205,1.72,1.7195,1.7226,1.7196,1.7212,1.7239,1.724,1.7244,1.7317,1.7293,1.7322,1.7365,1.7386,1.7395,1.7402,1.7425,1.7434,1.7327,1.7327,1.7327,0,1.7219,1.7247,1.7226,1.725,1.7256,1.7222,1.7253,1.7255,1.726,1.7264,1.7244,1.7275,1.7274,1.7311,1.7329,1.7334,1.734,1.7321,1.7395,1.7402,1.7409,1.743,1.744,1.733,1.733,1.733,1.7329,0,1.73,1.7321,1.7346,1.7351,1.736,1.7388,1.7369,1.7381,1.7364,1.7355,1.7384,1.7381,1.7391,1.74,1.7385,1.7434,1.7423,1.74,1.7363,1.7423,1.7442,1.7451,1.7335,1.7334,1.7333,1.7332,0,0,1.741,1.7401,1.7411,1.7411,1.7408,1.7423,1.7448,1.7458,1.7467,1.7471,1.749,1.7513,1.749,1.7495,1.7479,1.7498,1.7551,1.7472,1.7471,1.7484,1.7602,1.7618,1.7628,1.7536,1.7538,1.7539,1.7601,0,1.7481,1.7523,1.7503,1.7548,1.7564,1.7531,1.7552,1.7552,1.7544,1.7556,1.7546,1.7561,1.7532,1.7534,1.7551,1.7541,1.7574,1.7537,1.7552,1.7553,1.755,1.7639,1.7657,1.7715,1.7609,1.7611,1.7612,0,1.7569,1.7575,1.7621,1.7612,1.7618,1.7638,1.7643,1.7656,1.7655,1.7647,1.7651,1.763,1.7652,1.7618,1.7647,1.7622,1.7627,1.7622,1.7624,1.7623,1.7584,1.7638,1.7734,1.7742,1.7624,1.7623,1.7622,0,1.7641,1.7661,1.769,1.7692,1.7683,1.7697,1.7694,1.769,1.7696,1.7701,1.7704,1.7713,1.7716,1.7722,1.7703,1.768,1.7734,1.7698,1.7726,1.7727,1.7738,1.7737,1.7833,1.7745,1.7745,1.7745,1.7745,0,1.772,1.7749,1.7721,1.7739,1.7769,1.7746,1.7776,1.7769,1.7766,1.778,1.7753,1.7767,1.7742,1.7754,1.7739,1.7764,1.7767,1.7759,1.7755,1.776,1.7761,1.7762,1.7756,1.7747,1.7747,1.7746,1.7746,0,1.7805,1.7789,1.7817,1.7806,1.7803,1.7826,1.7815,1.783,1.7819,1.7838,1.7841,1.7823,1.7835,1.7817,1.7827,1.7817,1.785,1.7841,1.785,1.7847,1.7874,1.7871,1.7973,1.7984,1.7891,1.7892,1.7893,0,1.7856,1.7876,1.7867,1.7874,1.7872,1.7885,1.789,1.7868,1.7874,1.7872,1.7887,1.7896,1.7902,1.7922,1.7909,1.7916,1.7905,1.794,1.7906,1.791,1.7902,1.79,1.79,1.7947,1.7948,1.7949,1.7949,0,1.7946,1.7936,1.7945,1.795,1.7957,1.796,1.7961,1.7969,1.7945,1.7953,1.7964,1.7969,1.7978,1.7986,1.7989,1.7985,1.7963,1.796,1.7967,1.7972,1.7975,1.7971,1.7867,1.7958,1.7957,1.7956,1.7956,1.7956,1.8014,1.8029,1.8023,1.8033,1.8031,1.8032,1.8045,1.8034,1.8043,1.8048,1.8034,1.8048,1.8043,1.8045,1.8043,1.8052,1.8037,1.8047,1.8049,1.8051,1.8054,1.7976,1.8053,1.8053,1.8053,1.8053,1.8052,0,1.81,1.8094,1.8104,1.8105,1.8112,1.809,1.8089,1.8097,1.8109,1.8106,1.8112,1.8123,1.8131,1.8118,1.8123,1.8133,1.8122,1.8135,1.8133,1.8131,1.8069,1.8062,1.8143,1.8143,1.8143,1.8143,1.8143,1.8143,1.8146,1.8169,1.8158,1.818,1.8174,1.8187,1.8188,1.8188,1.8185,1.8199,1.8204,1.8196,1.8189,1.8193,1.8198,1.8194,1.8196,1.8211,1.8204,1.8145,1.8136,1.8128,1.812,1.8213,1.8213,1.8264,1.8265,1.8265]},{"header":{"parameterUnit":"m.s-1","parameterCategory":1,"la1":30.2991,"la2":30.254,"lo1":-89.0895,"lo2":-89.0444,"dy":0.0017,"dx":0.0017,"nx":28,"ny":28,"refTime":"2024-07-21T21:00:00:Z","depth":0,"parameterNumber":3,"parameterNumberName":"V-component_of_WINDS"},"data":[0,0,0,0,0,0,0,0,0,0,0,0,0,0,0,0,0,0,0,0,0,0,0,0,0,0,0,0,0,0,0,0,0,0,0,0,0,0,0,0,0,0,0,0,0,0,0,0,0,0,0,0,0,0,0,0,0,0,1.3464,1.3464,0,1.346,1.346,1.346,1.3419,1.3418,1.3417,1.3416,1.3414,1.3415,1.3415,0,0,0,0,0,0,0,0,0,0,0,0,0,1.3435,1.3436,1.3464,1.3464,1.3464,1.346,1.346,1.346,1.3419,1.3418,1.3417,1.3416,1.3413,1.3414,1.3415,0,0,0,0,0,0,0,0,0,0,0,0,0,1.3441,1.3436,1.3464,1.3443,1.3441,1.346,1.346,1.346,1.342,1.3418,1.3417,1.3415,1.3413,1.3414,1.3416,1.3455,0,0,1.342,1.342,0,0,0,0,0,0,0,0,1.3441,1.3443,1.3446,1.3444,1.3442,1.3438,1.3449,1.3458,1.342,1.3428,1.3416,1.3414,1.3423,1.3424,1.3426,1.3455,1.3455,1.342,1.3421,1.3421,1.3422,0,0,0,0,0,0,0,1.3441,1.3442,1.3462,1.3446,1.3444,1.3434,1.3433,1.3451,1.3434,1.3427,1.3424,1.3424,1.3422,1.3425,1.3426,1.3455,1.342,1.3421,1.3422,1.3422,1.3514,1.3515,0,0,0,0,0,0,1.3443,1.3442,1.3462,1.3462,1.3438,1.3436,1.3435,1.3441,1.3434,1.3431,1.3425,1.3422,1.3424,1.3425,1.3426,1.3471,1.3421,1.3422,1.3423,1.3512,1.3514,1.3516,0,0,0,0,0,0,1.3443,1.3445,1.3463,1.3451,1.3453,1.3438,1.3446,1.3442,1.3445,1.3433,1.343,1.3432,1.3423,1.3424,1.3448,1.347,1.3423,1.3424,1.351,1.3513,1.3515,1.3561,0,0,0,0,0,0,1.3442,1.3445,1.346,1.3452,1.3454,1.3485,1.3447,1.3443,1.3448,1.3443,1.3438,1.3436,1.3421,1.3446,1.3449,1.3471,1.3425,1.3508,1.3511,1.3514,1.3558,1.3565,1.3571,0,0,0,0,0,1.3441,1.3474,1.3461,1.3464,1.3472,1.3486,1.3487,1.347,1.345,1.3464,1.3456,1.3436,1.3467,1.3449,1.3452,1.3475,1.3507,1.351,1.3514,1.3554,1.3563,1.3571,0,0,0,0,0,0,1.3486,1.3473,1.3458,1.3489,1.3489,1.3479,1.3497,1.348,1.3485,1.3481,1.346,1.3459,1.3486,1.3482,1.3462,1.3512,1.3483,1.3488,1.3513,1.3521,1.3528,1.3528,1.3426,0,0,0,0,0,1.3499,1.3512,1.3499,1.3528,1.3528,1.3513,1.3518,1.3505,1.3504,1.3504,1.3497,1.3497,1.3507,1.3514,1.3522,1.3557,1.3555,1.3574,1.358,1.3586,1.359,1.3608,1.3616,1.3528,1.3528,1.3528,0,0,1.3527,1.3521,1.3531,1.3537,1.3535,1.3548,1.3513,1.3529,1.3538,1.3506,1.3528,1.3523,1.3522,1.3551,1.3563,1.3549,1.3614,1.3591,1.3595,1.3596,1.3612,1.3621,1.3628,1.353,1.353,1.3529,0,0,1.3585,1.3582,1.3605,1.3603,1.3601,1.359,1.3595,1.3588,1.3583,1.3604,1.358,1.3591,1.3609,1.3608,1.3611,1.3667,1.3648,1.367,1.3705,1.3723,1.3729,1.3735,1.3755,1.3763,1.3674,1.3674,1.3674,0,1.362,1.3639,1.3619,1.3636,1.3639,1.361,1.3632,1.3632,1.3633,1.3636,1.3619,1.3639,1.3636,1.3665,1.3678,1.3681,1.3686,1.3671,1.373,1.3736,1.3741,1.376,1.3767,1.3677,1.3677,1.3676,1.3676,0,1.3682,1.3696,1.3714,1.3715,1.372,1.374,1.3723,1.373,1.3716,1.3707,1.3729,1.3724,1.373,1.3736,1.3723,1.3762,1.3753,1.3734,1.3705,1.3753,1.377,1.3777,1.3681,1.368,1.3679,1.3678,0,0,1.3769,1.3757,1.3764,1.3764,1.3758,1.3768,1.3786,1.3792,1.3798,1.3799,1.3814,1.3829,1.381,1.3813,1.3799,1.3814,1.3858,1.3793,1.3792,1.3805,1.3901,1.3915,1.3924,1.3846,1.3847,1.3848,1.3901,0,1.3825,1.3855,1.3837,1.387,1.3881,1.3853,1.3869,1.3867,1.3859,1.3867,1.3858,1.3869,1.3844,1.3845,1.3859,1.385,1.3877,1.3846,1.3859,1.386,1.3861,1.3933,1.3949,1.3999,1.3907,1.3909,1.3909,0,1.3894,1.3896,1.393,1.3921,1.3925,1.394,1.3943,1.3952,1.3949,1.3942,1.3944,1.3926,1.3943,1.3914,1.3937,1.3917,1.3921,1.3917,1.3919,1.3919,1.3888,1.3936,1.4015,1.4022,1.392,1.3919,1.3918,0,1.3953,1.3966,1.3987,1.3988,1.3978,1.3988,1.3985,1.398,1.3984,1.3987,1.3989,1.3994,1.3997,1.4001,1.3985,1.3966,1.4011,1.398,1.4005,1.4006,1.4016,1.4016,1.4097,1.4019,1.4019,1.4019,1.4018,0,1.4017,1.4039,1.4014,1.4027,1.4051,1.4029,1.4053,1.4046,1.4042,1.4054,1.403,1.4041,1.4019,1.4028,1.4016,1.4036,1.4038,1.4033,1.4029,1.4035,1.4036,1.4038,1.4034,1.4021,1.402,1.402,1.4019,0,1.4088,1.4072,1.4093,1.4082,1.4079,1.4097,1.4087,1.4099,1.4088,1.4103,1.4105,1.4089,1.4099,1.4083,1.409,1.4082,1.4111,1.4102,1.4112,1.4109,1.4135,1.4132,1.422,1.423,1.4146,1.4147,1.4147,0,1.413,1.4146,1.4135,1.4141,1.4138,1.4148,1.4151,1.4131,1.4136,1.4133,1.4145,1.4152,1.4157,1.4173,1.4162,1.4168,1.4159,1.4189,1.4159,1.4164,1.4159,1.4158,1.4159,1.4195,1.4196,1.4197,1.4198,0,1.4206,1.4196,1.4202,1.4206,1.421,1.4212,1.4212,1.4218,1.4196,1.4203,1.4212,1.4215,1.4222,1.423,1.4232,1.4229,1.421,1.4207,1.4213,1.4219,1.4224,1.4221,1.4128,1.4205,1.4204,1.4204,1.4203,1.4203,1.4263,1.4275,1.427,1.4277,1.4274,1.4274,1.4285,1.4275,1.4282,1.4285,1.4273,1.4284,1.428,1.4282,1.428,1.4289,1.4275,1.4284,1.4286,1.4289,1.4293,1.4222,1.4289,1.4289,1.4289,1.4289,1.4288,0,1.4337,1.4332,1.4338,1.4338,1.4344,1.4325,1.4323,1.4329,1.434,1.4337,1.4342,1.4351,1.4358,1.4347,1.4352,1.4361,1.4353,1.4363,1.4362,1.4362,1.4304,1.4299,1.437,1.437,1.437,1.437,1.437,1.437,1.4377,1.4396,1.4386,1.4404,1.4399,1.4409,1.441,1.441,1.4407,1.4419,1.4424,1.4417,1.4411,1.4415,1.442,1.4417,1.442,1.4433,1.4427,1.4374,1.4366,1.4358,1.4353,1.4434,1.4434,1.4483,1.4484,1.4484]}]]